User: anonymous   Login
Location: Bismarck
(46.7731°N, 100.8200°W)
Time: 02:16:39
(UTC-05:00)
Language:

Landsat 7 - Orbit

View from above orbital plane
View from above orbital plane
View from above satellite
View from above satellite

Ground track
Ground track

The orbit data is extracted from the following two-line orbital elements,

1 25682U 99020A   17233.77388815 +.00000029 +00000-0 +16565-4 0  9994
2 25682 098.2067 304.0085 0001197 085.3694 274.7633 14.57111052976146
Epoch (UTC): 21 August 2017 18:34:23
Eccentricity: 0.0001197
inclination: 98.2067°
perigee height: 701 km
apogee height: 703 km
right ascension of ascending node: 304.0085°
argument of perigee: 85.3694°
revolutions per day: 14.57111052
mean anomaly at epoch: 274.7633°
orbit number at epoch: 97614

The dashed part of the orbit path shows where the satellite is in the earth's shadow,  

DLR